Weather in Banbury

United Kingdom     52˚03′36″N   1˚20′25″W
temp.,
°C
wind,
m/s
gust,
m/s
humid.,
%
clouds,
%
prec.,
mm/h
press.,
hPa
HPBL,
m
29 november, sun
sun2900:00+6˚ene239599 0.0 102365
03:00+5˚ene239698 0.0 102465
06:00+5˚ene239583 0.0 102543
09:00+5˚ene239784 0.0 102662
12:00+8˚ese128758 0.0 1027228
15:00+7˚w119262 0.0 102622
18:00+5˚wsw119436 0.0 102722
21:00+5˚wnw22940 0.0 102725
30 november, mon
mon3000:00+5˚wnw11977 0.0 102722
03:00+5˚wsw239773 0.0 102649
06:00+5˚wsw339674 0.0 102669
09:00+7˚wsw479382 0.0 1026212
12:00+8˚w6128891 0.0 1024534
15:00+8˚w61489100 0.2 1022718
18:00+8˚w71490100 0.8 1021667
21:00+9˚nw61393100 0.1 1022759
1 december, tue
tue100:00+4˚nnw51184100 0.1 1024363
03:00+3˚nnw41183100 0.0 1024318
06:00+3˚nw41184100 0.0 1025320
09:00+3˚nnw4118383 0.0 1026357
12:00+5˚nnw697792 0.0 1026560
15:00+5˚nnw488391 0.0 1025399
18:00+3˚nnw488895 0.0 1026195
21:00+2˚nnw358990 0.0 1026111
2 december, wed
wed200:00+1˚nw338993 0.0 102555
03:00+1˚nw338733 0.0 102342
06:00+1˚wsw117965 0.0 102122
09:00+3˚sw227683 0.0 102065
12:00+6˚wsw358182 0.0 1018268
15:00+6˚wsw369157 0.0 1016215
18:00+4˚nw349567 0.0 101582
21:00+3˚w339339 0.0 101581
3 december, thu
thu300:00+2˚sw349070 0.0 101281
03:00+1˚ssw3792100 0.0 1009146
06:00+2˚ssw41093100 0.0 1005353
09:00+3˚s61195100 0.5 1001608
12:00+4˚s71396100 2.2 995703
15:00+5˚sse81495100 3.2 989830
18:00+6˚sse81496100 4.7 984779
21:00+6˚sse91593100 5.5 979938